Вернуться в каталог

STARLINK-37572

АктивенСвязьVLEO
NORAD 69448·PAYLOAD·🇺🇸 United States

Запущен Jun 8, 2026 с Cape Canaveral Space Force Station

Loading…

Ближайшие Пролёты (ближайшие 24 часа)

TLE

СвежийSource: CelesTrak SupGP

Эпоха: Sep 14, 2026, 22:49 UTC

1 69448C 26127F   26257.95118056 -.00018943  00000+0 -55947-3 0  2572
2 69448  53.1573 191.5698 0001212  85.6442 195.0619 15.34412505    13

Отслеживайте STARLINK-37572 в реальном времени с AllMySat

Download on the App Store